Regional Weather Roundup
Issued by NWS Kansas City/Pleasant Hill, MO

Home | Current Version | Previous Version | Text Only | Print | Product List | Glossary On
Versions: 1 2 3 4 5 6 7 8 9 10 11 12 13 14 15 16 17 18 19 20 21 22 23 24 25 26 27 28 29 30 31 32 33 34 35 36 37 38 39 40 41 42 43 44 45 46 47 48 49
000
ASUS43 KEAX 080610
RWREAX

WEATHER ROUNDUP FOR EASTERN KANSAS AND NORTHWEST MISSOURI
NATIONAL WEATHER SERVICE KANSAS CITY/PLEASANT HILL MO
100 AM CDT WED JUL 08 2015

KSZ040-057-103>105-MOZ028-029-037-043-080700-
...KANSAS CITY METROPOLITAN AREA...

CITY           SKY/WX    TMP DP  RH WIND       PRES   REMARKS
K.C. INTL      DRIZZLE   66  59  78 E8        30.06F
6HR MIN TEMP:  66; 6HR MAX TEMP:  69; 6HR PCP: TRACE;

K.C. DOWNTOWN  LGT RAIN  66  63  90 SE3       30.05F FOG
6HR MIN TEMP:  66; 6HR MAX TEMP:  71;

LEES SUMMIT    LGT RAIN  66  64  93 CALM      30.06F FOG
6HR MIN TEMP:  65; 6HR MAX TEMP:  69; 6HR PCP:  0.09;

OLATHE - IXD   LGT RAIN  64  62  93 E6        30.07F FOG
6HR MIN TEMP:  64; 6HR MAX TEMP:  66; 6HR PCP:  0.09;

OLATHE - OJC   LGT RAIN  63  62  97 NE6       30.06S FOG
6HR MIN TEMP:  63; 6HR MAX TEMP:  68; 6HR PCP:  0.13;

LAWRENCE       LGT RAIN  66  63  90 CALM      30.07S

$$

MOZ001>008-011>017-020>025-030>033-038>040-044>046-053-054-080700-
...NORTHERN AND CENTRAL MISSOURI...

CITY           SKY/WX    TMP DP  RH WIND       PRES   REMARKS
ST. JOSEPH     CLOUDY    66  57  72 NE5       30.07F
6HR MIN TEMP:  66; 6HR MAX TEMP:  72;

MOSBY          DRIZZLE   64  61  88 NE5       30.06F
WARRENSBURG    DRIZZLE   63  61  94 NE5       30.05F
WHITEMAN AFB   MOCLDY    65  63  94 E5        30.04F FOG
6HR MIN TEMP:  65; 6HR MAX TEMP:  65; 6HR PCP:  0.18;

CLINTON        DRIZZLE   64  64 100 NE8       30.04F
SEDALIA        CLOUDY    65  62  90 E5        30.06F FOG
6HR MIN TEMP:  65; 6HR MAX TEMP:  67; 6HR PCP:  0.27;

WARSAW         NOT AVBL
CHILLICOTHE      N/A     67  60  78 CALM      30.08F
6HR MIN TEMP:  67; 6HR MAX TEMP:  73;

KIRKSVILLE     CLOUDY    64  58  80 NE5       30.09S
6HR MIN TEMP:  64; 6HR MAX TEMP:  72;


$$

MOZ041-047>049-056>058-063>065-088>090-097-080700-
...EASTERN AND SOUTHERN MISSOURI...

CITY           SKY/WX    TMP DP  RH WIND       PRES   REMARKS
ST. LOUIS INTL LGT RAIN  66  62  87 E7        30.06F
6HR MIN TEMP:  66; 6HR MAX TEMP:  69; 6HR PCP:  0.02;

SPIRIT OF STL  CLOUDY    66  64  93 E3        30.05F
COLUMBIA       LGT RAIN  65  63  93 E7        30.06F FOG
JEFFERSON CITY CLOUDY    65  63  93 E5        30.05F
ROLLA          CLOUDY    63  63 100 E8        30.04F FOG
OSAGE BEACH    CLOUDY    64  63  94 E5        30.04F
SPRINGFIELD    CLOUDY    68  67  96 E5        30.01F
BRANSON          N/A     72  72 100 CALM      30.04F
JOPLIN         CLOUDY    66  65  96 NE5       30.01F FOG
WEST PLAINS    FOG       71  70  96 S3        30.06S VSB 1/4

$$

IAZ060-094-KSZ022-034>040-054-083-096-NEZ052-066-093-080700-
...KANSAS...SOUTHEAST NEBRASKA AND IOWA...

CITY           SKY/WX    TMP DP  RH WIND       PRES   REMARKS
TOPEKA         CLOUDY    66  62  87 CALM      30.06F
6HR MIN TEMP:  66; 6HR MAX TEMP:  70;

MANHATTAN      CLOUDY    63  60  90 CALM      30.06S
EMPORIA        CLOUDY    63  61  93 NE6       30.05F
CHANUTE        LGT RAIN  64  63  96 NE6       30.03S FOG
WICHITA        LGT RAIN  63  60  90 NE10      30.04F FOG
OMAHA          CLEAR     60  54  80 CALM      30.09F
LINCOLN        CLEAR     59  53  80 CALM      30.10S
FALLS CITY     CLOUDY    62  58  86 CALM      30.07F
LAMONI         CLOUDY    62  54  74 NE5       30.09F
DES MOINES     PTCLDY    61  51  70 E5        30.10F

$$




USA.gov is the U.S. government's official web portal to all federal, state and local government web resources and services.